Find Starlink 30823

NORAD ID: 58248 Int'l Des: 2023-171 Owner: SPXS Country: US Constellation: starlink operational
LEOCIRCULAR

リアルタイム位置

3D地球を読み込み中...

Starlink 30823について

説明を読み込み中...

次回通過

Passes for default location (London). Set your location on the main map for personalized predictions.

高度履歴

Loading altitude history...

軌道要素

1 58248U 23171U 26126.87951229 -.00000382 00000-0 -43391-5 0 9991
2 58248 43.0000 316.6190 0001579 283.2650 76.8026 15.27572396138637
Epoch: May 6, 2026 • Age: 10 hours

現在のステータス

高度 484.0 km
速度 7.62 km/s
衛星直下点 -6.40°S, 165.69°E
打ち上げ日 Nov 8, 2023
運用期間 2.4 years
タイプ internet

技術仕様

分類 Payload
質量 730.00 kg
乾燥質量 700.00 kg
総質量 730.00 kg
長さ 0.30 m
直径 4.10 m
スパン 29.00 m
形状 Box + pan
製造者 SPXS
バスタイプ Starlink V2M
フェーズステータス In Orbit
所有者/国 SPXS/US

Most Searched